7 * 24
多渠道服务支持
STARLINK-37023(NORAD编号:68076)是美国SpaceX公司星链(Starlink)低轨互联网星座中的一颗卫星,属于星链大规模组网部署的组成部分。星链项目旨在通过近地轨道卫星星座,为全球提供高速低延迟的互联网接入服务,覆盖偏远地区与传统网络难以覆盖的区域。该卫星运行在近地轨道,参与星座组网以实现天地一体化互联,助力SpaceX推进全球卫星互联网服务布局,目前已进入轨道投入部署,是星链扩张星座规模、提升服务覆盖能力的其中一颗在轨卫星。
美国
(US)
| 数据来源 | 国际轨道数据 | AOE轨道数据 |
| 星历时间 | 2026-09-03T20:47:23+0800 17小时前 查看轨道信息 | 2026-09-01T09:00:00+0800 3天前 查看轨道信息 |
| 半长轴 | 6840.84km | 6840.821km |
| 偏心率 | 0.0000847 | 0.0001833 |
| 轨道倾角 | 53.158° | 53.163° |
| 近地点辐角 | 72.581° | 83.056° |
| 升交点赤经 | 69.127° | 80.773° |
| 平近点角 | 287.529° | 188.189° |
| 近地点 | 462.123km | 461.43km |
| 远地点 | 463.283km | 463.938km |
| 周期 | 93.848分钟 | 93.847分钟 |
| 每日圈数 | 15.344002 | 15.344067 |
| 事件ID | 空间交会对象 | 最接近时刻(TCA) | 交会距离 | 交会风险概率(CRP) | 交会风险指数(CRI) | 操作 |
|---|---|---|---|---|---|---|
| CDM_260905-015205-921406-807621 |
STARLINK-31604
(59214)
STARLINK-37023
(68076) | 2026-09-05T 01:52:52+0000 |
0.322 km
远距离 | 2.034422E-4 高风险 | 0.81 | |
| CDM_260903-201104-976006-807622 |
STARLINK-3199
(49760)
STARLINK-37023
(68076) | 2026-09-03T 20:11:09+0000 |
0.361 km
远距离 | 1.499836E-4 高风险 | 0.79 | |
| CDM_260904-224706-666706-807621 |
PELICAN-5 300C
(66667)
STARLINK-37023
(68076) | 2026-09-04T 22:47:16+0000 |
0.688 km
远距离 | 7.750325E-5 中风险 | 0.73 | |
| CDM_260903-210505-396406-807621 |
STARLINK-4633
(53964)
STARLINK-37023
(68076) | 2026-09-03T 21:05:45+0000 |
0.937 km
远距离 | 2.037919E-5 中风险 | 0.61 | |
| CDM_260905-024106-666706-807621 |
PELICAN-5 300C
(66667)
STARLINK-37023
(68076) | 2026-09-05T 02:41:53+0000 |
1.191 km
极远距离 | 1.260206E-5 中风险 | 0.57 | |
| CDM_260904-000504-976006-807622 |
STARLINK-3199
(49760)
STARLINK-37023
(68076) | 2026-09-04T 00:05:38+0000 |
0.872 km
远距离 | 1.179213E-5 中风险 | 0.56 | |
| CDM_260904-084905-396406-807621 |
STARLINK-4633
(53964)
STARLINK-37023
(68076) | 2026-09-04T 08:49:12+0000 |
1.226 km
极远距离 | 8.034139E-6 低风险 | 0.53 | |
| CDM_260903-223905-396406-807621 |
STARLINK-4633
(53964)
STARLINK-37023
(68076) | 2026-09-03T 22:39:32+0000 |
1.416 km
极远距离 | 4.957166E-6 低风险 | 0.49 | |
| CDM_260904-102205-396406-807621 |
STARLINK-4633
(53964)
STARLINK-37023
(68076) | 2026-09-04T 10:22:59+0000 |
1.524 km
极远距离 | 3.909032E-6 低风险 | 0.47 | |
| CDM_260905-041305-921406-807621 |
STARLINK-31604
(59214)
STARLINK-37023
(68076) | 2026-09-05T 04:13:33+0000 |
1.331 km
极远距离 | 3.099357E-6 低风险 | 0.45 |